Location: Jangalapalle
(16.8036°N, 80.6370°E)
Time: 11:18:57
(UTC+00:00)

ARIANE 6 FM1 Upper Stage - Pass Details

Date: 05 August 2024
Orbit: 567 x 594 km, 62.0° (Epoch: 06 September)

Event Time Altitude Azimuth Distance (km) Brightness Sun altitude
Rises 13:47:31 0° 328° (NNW) 2,825 7.2 -9.8°
Reaches altitude 10° 13:49:48 10° 324° (NW) 1,920 6.3 -10.3°
Maximum altitude 13:54:04 58° 245° (WSW) 686 3.3 -11.2°
Drops below altitude 10° 13:58:18 10° 166° (SSE) 1,903 5.0 -12.2°
Enters shadow 13:59:19 - 164° (SSE) 2,304 5.4 -12.4°
